Morganton, NC

3:58 PM EST on December 12, 2017 (GMT -0500)
Morganton-Lenoir

Weather History for KMRN - September, 2013

Change the Weather History Date:

Sunday, September 1, 2013

  Actual Average (KHKY) Record (KHKY)
Temperature  
Mean Temperature 76 °F -  
Max Temperature 86 °F 83 °F 95 °F (1957)
Min Temperature 66 °F 64 °F 52 °F (1976)
Cooling Degree Days 11    
Growing Degree Days 26 (Base 50)    
Moisture  
Dew Point 69 °F    
Average Humidity 92    
Maximum Humidity 100    
Minimum Humidity 55    
Precipitation  
Precipitation 0.45 in - - ()
Sea Level Pressure  
Sea Level Pressure 29.95 in    
Wind  
Wind Speed 1 mph (SSW)    
Max Wind Speed 16 mph    
Max Gust Speed 31 mph    
Visibility 5 miles    
Events Fog , Rain    
Averages and records for this station are not official NWS values.
T = Trace of Precipitation, MM = Missing Value Source: NWS Daily Summary

Daily Weather History Graph

Daily Weather History Graph

Search for Another Location

Airport or City:

Trip Planner

Search our weather history database for the weather conditions in past years. The results will help you decide how hot, cold, wet, or windy it might be!

Date:

Astronomy

Sep. 01, 2013 Rise Set
Actual Time 6:58 AM EDT 7:53 PM EDT
Civil Twilight 6:32 AM EDT 8:19 PM EDT
Nautical Twilight 6:01 AM EDT 8:50 PM EDT
Astronomical Twilight 5:29 AM EDT 9:22 PM EDT
Moon 3:23 AM EDT (9/1) 5:26 PM EDT (9/1)
Length of Visible Light 13h 47m
Length of Day
12h 54m
Waning Crescent, 14% of the Moon is Illuminated
Sep 1
Waning Crescent
Sep 5
New
Sep 12
First Quarter
Sep 19
Full
Sep 26
Last Quarter

Hourly Weather History & Observations

Time (EDT) Temp. Heat Index Dew Point Humidity Pressure Visibility Wind Dir Wind Speed Gust Speed Precip Events Conditions
12:15 AM 67.1 °F - 67.1 °F 100% 30.00 in 1.0 mi Calm Calm - N/A   Mist
12:35 AM 66.4 °F - 66.4 °F 100% 30.00 in 0.8 mi Calm Calm - N/A   Mist
12:55 AM 67.3 °F - 67.3 °F 100% 29.99 in 0.5 mi Calm Calm - N/A Fog Fog
1:15 AM 66.6 °F - 66.6 °F 100% 29.99 in 0.5 mi Calm Calm - N/A Fog Fog
1:35 AM 66.2 °F - 66.2 °F 100% 29.98 in 0.2 mi Calm Calm - N/A Fog Fog
1:55 AM 66.0 °F - 66.0 °F 100% 29.97 in 0.8 mi Calm Calm - N/A   Mostly Cloudy
2:15 AM 67.3 °F - 67.3 °F 100% 29.97 in 0.2 mi Calm Calm - N/A Fog Fog
2:35 AM 68.0 °F - 68.0 °F 100% 29.96 in 0.2 mi Calm Calm - N/A Fog Fog
2:55 AM 68.9 °F - 68.9 °F 100% 29.97 in 0.2 mi Calm Calm - N/A Fog Fog
3:15 AM 69.1 °F - 69.1 °F 100% 29.97 in 0.8 mi Calm Calm - N/A   Overcast
3:35 AM 68.9 °F - 68.9 °F 100% 29.96 in 0.5 mi Calm Calm - N/A Fog Fog
3:55 AM 68.7 °F - 68.7 °F 100% 29.96 in 0.2 mi Calm Calm - N/A Fog Fog
4:15 AM 68.9 °F - 68.9 °F 100% 29.96 in 0.5 mi Calm Calm - N/A Fog Fog
4:35 AM 68.7 °F - 68.7 °F 100% 29.96 in 1.2 mi Calm Calm - N/A   Overcast
4:55 AM 68.7 °F - 68.7 °F 100% 29.97 in 0.5 mi Calm Calm - N/A Fog Fog
5:15 AM 68.4 °F - 68.4 °F 100% 29.97 in 0.5 mi Calm Calm - N/A Fog Fog
5:35 AM 68.5 °F - 68.5 °F 100% 29.96 in 0.2 mi Calm Calm - N/A Fog Fog
5:55 AM 68.5 °F - 68.5 °F 100% 29.96 in 0.2 mi Calm Calm - N/A Fog Fog
6:15 AM 68.5 °F - 68.5 °F 100% 29.96 in 0.2 mi Calm Calm - N/A Fog Fog
6:35 AM 68.7 °F - 68.7 °F 100% 29.96 in 0.2 mi Calm Calm - N/A Fog Fog
6:55 AM 68.9 °F - 68.9 °F 100% 29.96 in 0.2 mi Calm Calm - N/A Fog Fog
7:15 AM 68.5 °F - 68.5 °F 100% 29.96 in 0.2 mi Calm Calm - N/A Fog Fog
7:35 AM 68.4 °F - 68.4 °F 100% 29.96 in 0.2 mi Calm Calm - N/A Fog Fog
7:55 AM 68.5 °F - 68.5 °F 100% 29.97 in 0.2 mi Calm Calm - N/A Fog Fog
8:15 AM 68.9 °F - 68.9 °F 100% 29.98 in 0.2 mi Calm Calm - N/A Fog Fog
8:35 AM 69.1 °F - 69.1 °F 100% 29.99 in 0.5 mi Calm Calm - N/A Fog Fog
8:55 AM 69.1 °F - 69.1 °F 100% 29.99 in 0.5 mi Calm Calm - N/A Fog Fog
9:15 AM 69.8 °F - 69.8 °F 100% 29.99 in 4.0 mi Calm Calm - N/A   Overcast
9:35 AM 70.5 °F - 70.5 °F 100% 29.98 in 5.0 mi Calm Calm - N/A   Overcast
9:55 AM 70.7 °F - 70.7 °F 100% 29.99 in 7.0 mi Calm Calm - N/A   Mostly Cloudy
10:15 AM 71.8 °F - 71.8 °F 100% 29.99 in 10.0 mi Calm Calm - N/A   Mostly Cloudy
10:35 AM 72.9 °F - 72.9 °F 100% 29.99 in 10.0 mi Calm Calm - N/A   Mostly Cloudy
10:55 AM 75.2 °F - 74.8 °F 99% 29.98 in 10.0 mi Calm Calm - N/A   Scattered Clouds
11:15 AM 78.3 °F - 71.4 °F 79% 29.98 in 10.0 mi Calm Calm - N/A   Clear
11:35 AM 79.2 °F - 71.2 °F 77% 29.98 in 10.0 mi Calm Calm - N/A   Clear
11:55 AM 80.6 °F 84.4 °F 71.1 °F 73% 29.97 in 10.0 mi Calm Calm - N/A   Clear
12:15 PM 81.7 °F 85.8 °F 70.9 °F 70% 29.97 in 10.0 mi SSE 4.6 mph - N/A   Clear
12:35 PM 83.1 °F 87.8 °F 71.2 °F 67% 29.96 in 10.0 mi SSW 5.8 mph - N/A   Clear
12:55 PM 83.3 °F 87.4 °F 70.2 °F 64% 29.95 in 10.0 mi SSW 3.5 mph - N/A   Clear
1:15 PM 84.4 °F 89.0 °F 70.5 °F 63% 29.93 in 10.0 mi South 4.6 mph - N/A   Clear
1:35 PM 84.7 °F 89.4 °F 70.3 °F 62% 29.93 in 10.0 mi SSW 5.8 mph - N/A   Clear
1:55 PM 85.1 °F 89.1 °F 69.3 °F 59% 29.92 in 10.0 mi SSW 5.8 mph - N/A   Scattered Clouds
2:15 PM 86.5 °F 91.0 °F 69.6 °F 57% 29.93 in 10.0 mi SSW 3.5 mph - N/A   Scattered Clouds
2:35 PM 86.9 °F 91.0 °F 69.1 °F 55% 29.91 in 10.0 mi SSW 5.8 mph - N/A   Scattered Clouds
2:55 PM 86.2 °F 90.4 °F 69.4 °F 57% 29.90 in 10.0 mi South 6.9 mph - N/A   Mostly Cloudy
3:15 PM 84.9 °F 89.4 °F 70.2 °F 61% 29.89 in 10.0 mi SSE 5.8 mph - N/A   Mostly Cloudy
3:35 PM 86.5 °F 91.4 °F 70.0 °F 58% 29.88 in 10.0 mi SSW 8.1 mph - N/A   Scattered Clouds
3:55 PM 83.7 °F 88.0 °F 70.5 °F 64% 29.91 in 10.0 mi NW 16.1 mph 25.3 mph N/A   Mostly Cloudy
4:15 PM 70.9 °F - 68.0 °F 91% 29.96 in 1.5 mi West 15.0 mph 31.1 mph 0.21 in Rain Heavy Rain
4:35 PM 68.4 °F - 67.5 °F 97% 29.93 in 2.5 mi ENE 4.6 mph - 0.42 in Rain Heavy Rain
4:55 PM 68.4 °F - 68.0 °F 99% 29.92 in 10.0 mi ESE 3.5 mph - 0.45 in Rain Light Rain
5:15 PM 68.9 °F - 68.5 °F 99% 29.92 in 10.0 mi NW 3.5 mph - N/A Rain Light Rain
5:35 PM 68.7 °F - 68.4 °F 99% 29.91 in 10.0 mi Calm Calm - N/A   Clear
5:55 PM 68.9 °F - 68.4 °F 98% 29.92 in 10.0 mi Calm Calm - N/A   Clear
6:15 PM 68.9 °F - 68.5 °F 99% 29.94 in 7.0 mi Calm Calm - N/A   Clear
6:35 PM 68.9 °F - 68.9 °F 100% 29.93 in 7.0 mi Calm Calm - N/A   Clear
6:55 PM 68.9 °F - 68.9 °F 100% 29.93 in 10.0 mi Calm Calm - N/A   Clear
7:15 PM 68.9 °F - 68.7 °F 99% 29.93 in 7.0 mi Calm Calm - N/A   Clear
7:35 PM 69.3 °F - 69.1 °F 99% 29.93 in 10.0 mi Calm Calm - N/A   Clear
7:55 PM 68.9 °F - 68.9 °F 100% 29.93 in 7.0 mi Calm Calm - N/A   Mostly Cloudy
8:15 PM 68.9 °F - 68.9 °F 100% 29.94 in 10.0 mi Calm Calm - N/A   Scattered Clouds
8:35 PM 68.5 °F - 68.5 °F 100% 29.94 in 7.0 mi Calm Calm - N/A   Clear
8:55 PM 68.4 °F - 68.4 °F 100% 29.95 in 5.0 mi Calm Calm - N/A   Clear
9:15 PM 68.4 °F - 68.4 °F 100% 29.94 in 7.0 mi Calm Calm - N/A   Clear
9:35 PM 68.0 °F - 68.0 °F 100% 29.95 in 7.0 mi Calm Calm - N/A   Clear
9:55 PM 68.4 °F - 68.4 °F 100% 29.95 in 7.0 mi Calm Calm - N/A   Clear
10:15 PM 67.5 °F - 67.5 °F 100% 29.95 in 7.0 mi Calm Calm - N/A   Clear
10:35 PM 67.5 °F - 67.5 °F 100% 29.97 in 2.5 mi Calm Calm - N/A   Scattered Clouds
10:55 PM 67.8 °F - 67.8 °F 100% 29.96 in 0.5 mi Calm Calm - N/A Fog Fog
11:15 PM 67.6 °F - 67.6 °F 100% 29.96 in 1.2 mi Calm Calm - N/A   Scattered Clouds
11:35 PM 68.0 °F - 68.0 °F 100% 29.96 in 4.0 mi NW 3.5 mph - N/A   Scattered Clouds
11:55 PM 68.0 °F - 68.0 °F 100% 29.96 in 0.8 mi Calm Calm - N/A   Overcast